Theta_e
293 293 295 295 295 287 291 291 289 290 292 291 290 296 293 289 285 286 287 290 295 297 298 303 304 315 319 320 320 320 320 322 324 327 330 332 333 334 334 334 335 335 335 335 336 336 335 335 336 336 337 338 338 339 340 341 342 343 343 345 345 345 346
294 296 294 294 295 295 289 286 289 294 296 292 290 285 283 281 282 284 287 290 289 290 290 300 302 315 318 318 319 319 320 321 321 324 327 331 333 334 335 336 336 336 336 335 336 336 336 336 336 336 337 338 339 339 340 341 342 341 342 344 344 345 345
292 295 293 291 294 297 291 291 297 291 287 289 287 286 283 282 283 283 288 291 291 291 291 296 302 310 316 317 318 318 318 319 320 322 325 329 332 334 335 335 336 336 336 336 336 336 337 337 338 337 338 338 338 339 340 341 341 342 342 343 345 345 346
291 291 291 283 288 294 295 294 291 293 291 288 284 290 285 285 282 282 285 287 287 295 294 297 301 311 317 316 316 317 318 319 319 320 323 327 330 333 334 335 336 337 337 337 336 336 336 336 336 337 337 338 337 338 340 340 342 342 343 343 345 344 345
287 283 287 286 287 285 287 288 286 288 288 291 291 290 288 286 281 279 282 283 289 296 299 299 305 314 317 317 314 315 318 319 320 320 322 325 329 331 334 335 336 337 337 338 338 338 337 337 338 338 337 337 337 337 338 340 340 341 341 342 343 344 345
283 286 290 291 289 289 287 286 285 285 285 284 283 285 288 289 283 280 281 285 291 298 301 300 311 315 317 318 315 314 315 318 319 320 322 324 328 329 334 336 336 337 338 338 339 339 338 337 337 337 337 337 337 337 337 339 340 340 341 341 343 344 345
284 288 290 293 292 291 290 290 287 288 287 286 281 279 284 286 288 292 287 285 290 300 300 301 314 315 317 319 319 315 316 316 317 319 321 323 326 328 332 336 336 337 338 339 339 338 338 337 337 337 337 337 337 337 337 338 339 340 341 341 343 344 344
285 288 290 293 292 290 287 288 290 288 285 286 286 283 286 285 285 282 282 286 289 300 300 300 314 315 317 319 319 317 316 317 318 318 319 321 322 326 328 334 336 337 338 339 339 339 338 337 337 337 337 337 338 338 337 337 338 339 341 341 342 343 344
279 280 285 286 289 290 286 285 288 288 288 288 288 288 289 285 286 286 282 282 288 297 299 300 314 313 315 316 318 318 315 316 317 317 320 320 322 323 324 327 331 336 338 338 338 339 339 338 338 338 337 337 337 338 338 337 338 339 341 342 342 342 343
275 277 277 277 281 283 286 288 288 289 288 287 286 283 285 278 288 286 283 282 288 294 297 303 311 312 313 315 316 317 317 316 317 318 318 319 320 321 323 324 326 329 333 336 338 340 340 339 338 338 338 338 337 338 338 339 338 339 340 341 342 341 342
275 277 280 285 292 284 282 285 286 287 288 288 288 285 281 281 284 284 284 286 288 289 292 303 308 310 310 311 313 313 314 316 318 318 319 319 318 320 321 323 324 326 328 331 335 337 339 339 339 339 338 338 338 338 339 339 340 340 340 341 342 341 342
283 282 286 287 289 285 285 285 285 287 287 287 286 284 283 287 284 279 287 291 287 288 295 307 307 309 310 311 311 312 314 315 316 317 318 322 318 319 321 322 323 323 325 328 331 335 338 340 341 339 339 339 339 339 338 339 340 340 340 341 341 342 342
285 286 285 287 286 286 286 286 286 286 287 286 285 286 287 288 283 282 286 288 287 289 302 307 308 309 309 310 311 312 314 315 316 316 316 317 317 318 319 320 322 323 324 326 328 331 335 338 340 342 341 339 340 340 340 340 341 341 342 341 341 341 342
285 285 286 287 286 286 286 286 287 286 286 286 287 286 287 287 286 288 288 289 289 294 304 308 309 310 310 310 312 312 312 313 315 315 315 316 317 318 319 320 321 323 323 325 327 329 332 334 337 340 342 344 340 340 340 340 341 342 343 342 341 341 341
283 285 289 286 286 287 284 285 286 286 286 286 286 287 289 293 290 291 293 291 290 298 306 307 311 311 311 310 309 310 311 312 314 313 314 316 317 317 319 319 321 322 323 324 326 328 330 332 335 337 339 342 344 343 341 341 342 343 343 343 343 342 342
279 283 285 285 286 285 283 282 284 284 286 286 287 287 290 289 287 292 295 291 296 303 305 307 309 309 308 307 308 309 310 312 313 313 314 315 316 319 319 319 320 321 322 324 325 327 329 332 334 335 337 339 342 343 345 344 343 344 344 344 343 343 344
277 280 285 285 283 279 279 283 285 287 287 289 289 290 294 301 301 296 294 294 303 303 305 302 304 308 307 307 308 308 310 311 312 313 314 314 316 318 319 319 319 320 322 324 325 326 329 331 333 336 338 338 339 341 345 345 348 346 345 345 345 345 345
277 281 283 285 277 274 275 285 290 290 287 289 287 288 293 301 302 300 303 303 305 303 302 301 302 305 307 307 309 312 310 310 311 313 314 315 316 316 318 319 319 320 322 324 326 328 330 332 334 336 338 338 339 343 345 347 346 349 347 347 346 346 347
279 280 282 279 273 274 283 290 293 294 291 292 289 290 298 301 301 303 302 303 303 304 303 303 304 305 310 310 309 310 311 312 311 311 312 314 315 316 316 318 319 320 321 323 325 327 330 332 333 333 334 337 340 341 344 347 346 347 350 348 348 348 348
279 278 276 269 273 281 288 290 295 299 296 296 294 292 297 300 300 301 300 302 304 304 304 305 305 305 307 312 311 309 310 313 312 311 312 313 314 315 316 317 319 320 321 323 324 326 332 332 331 332 333 336 339 340 344 348 347 346 346 350 350 350 350
276 278 276 277 283 284 286 291 292 293 290 292 291 287 291 298 300 300 300 301 303 303 304 304 305 306 307 308 307 309 309 310 313 314 314 314 315 316 318 318 320 323 323 324 326 328 330 330 330 330 332 335 338 340 342 345 348 347 346 346 347 350 354
280 277 276 276 275 274 279 289 297 299 298 297 297 293 289 298 298 300 300 300 301 302 303 303 304 305 308 303 304 307 308 310 311 314 316 316 316 316 318 320 320 322 324 325 327 328 329 328 329 329 331 335 336 339 341 343 342 350 347 347 348 350 350
280 279 276 273 272 278 284 290 295 297 298 298 297 291 285 295 296 298 299 299 300 301 301 303 303 300 297 298 302 305 308 309 311 311 314 316 316 317 317 319 320 321 323 325 325 326 327 326 327 328 329 331 334 337 338 339 341 342 340 343 345 347 349
281 280 276 276 280 277 286 291 295 297 297 298 291 279 280 293 295 298 299 299 300 301 302 304 301 299 295 297 301 307 308 309 310 311 312 313 316 317 318 318 322 323 325 325 324 323 324 324 326 327 327 327 330 333 335 338 338 336 336 338 340 344 345
285 285 278 279 282 289 293 293 296 296 298 293 282 278 286 293 295 298 300 300 301 302 301 302 298 302 303 304 306 308 309 308 309 310 312 314 316 317 318 317 322 323 323 323 323 323 324 325 326 324 324 324 326 328 331 332 333 333 335 337 338 340 343
280 280 280 279 282 286 292 295 296 298 292 281 279 290 294 293 296 299 300 300 301 301 301 300 300 302 304 306 306 307 307 307 308 309 311 312 313 316 318 319 321 322 322 323 323 324 323 322 325 323 323 322 323 325 327 328 328 329 332 334 337 338 340
282 281 281 279 275 285 296 296 294 297 286 285 291 294 296 300 299 299 299 300 300 301 299 301 301 301 301 302 304 306 307 307 307 308 309 310 311 313 315 316 318 320 320 321 322 322 323 322 324 322 322 322 322 324 324 325 326 328 330 333 335 337 339
278 279 278 279 285 290 296 292 286 291 295 295 296 295 293 298 299 298 298 298 299 300 299 299 299 300 300 301 303 305 306 307 307 308 309 310 311 312 314 316 318 320 320 321 322 323 322 323 323 322 322 321 322 322 323 324 325 327 329 331 334 335 338
282 280 283 288 290 294 296 294 292 294 296 297 297 297 297 298 297 299 297 297 298 298 299 299 299 298 300 301 302 303 305 306 307 307 308 309 310 311 313 315 318 319 319 320 321 322 323 322 323 322 322 321 321 321 322 323 325 326 327 329 331 334 336
288 290 291 292 292 292 294 296 297 296 296 297 298 299 296 296 297 297 297 297 297 298 299 298 298 299 300 300 301 303 305 305 306 309 309 309 310 311 313 314 316 319 320 319 319 321 321 322 322 323 322 321 319 320 322 323 323 325 327 328 330 333 336
285 281 288 291 292 293 294 294 296 297 298 297 298 296 295 296 297 297 298 298 298 298 299 299 299 299 301 301 302 303 304 304 305 306 307 309 310 310 311 314 318 318 318 317 317 319 320 321 321 320 320 320 321 321 321 322 323 324 326 327 330 332 335
284 285 287 290 291 292 293 294 293 293 294 295 298 297 297 298 298 299 299 299 299 300 299 300 300 300 301 301 301 302 302 304 305 306 307 308 309 311 312 313 316 317 317 316 316 318 319 320 320 320 320 320 321 321 321 321 322 323 324 327 328 331 334
288 290 292 292 292 293 293 294 294 295 294 295 295 296 297 297 297 298 299 300 300 300 300 301 301 300 301 301 302 301 302 303 304 305 306 308 309 310 311 313 316 315 317 317 317 318 320 320 318 319 319 320 320 320 319 320 321 321 323 326 328 330 334
283 285 288 290 286 285 287 291 294 295 295 296 296 296 296 297 297 298 298 299 301 301 302 301 301 300 301 301 302 302 302 303 304 305 306 307 308 310 312 313 314 315 318 318 317 319 320 318 317 318 318 319 320 319 319 319 319 319 322 324 327 330 331
284 290 292 291 291 290 291 292 294 295 296 296 296 296 296 297 298 298 298 298 299 300 301 303 302 301 301 302 302 302 302 303 304 305 306 306 307 309 311 312 312 314 316 318 319 320 319 317 317 317 317 317 318 318 318 318 318 319 319 322 325 325 327
293 293 291 292 292 292 292 293 295 295 296 296 296 297 297 298 298 299 299 300 300 300 301 302 302 302 302 303 303 302 303 304 305 305 307 307 308 310 312 312 313 314 316 318 318 318 317 316 316 316 316 316 317 317 316 317 318 318 318 320 322 322 323
293 295 293 293 294 294 293 294 295 296 298 299 296 297 297 297 298 300 300 301 302 301 300 299 300 302 302 303 304 304 304 305 306 307 310 312 312 312 313 313 314 315 316 318 319 318 315 314 315 316 315 316 317 316 316 317 317 317 318 319 320 321 322
Wind_Speed
3 4 2 4 1 3 2 3 2 3 3 2 2 1 1 2 5 4 1 3 5 4 1 15 17 16 19 19 19 18 17 16 15 5 10 13 14 14 15 15 16 16 15 15 16 16 15 15 16 17 17 16 16 15 14 15 14 13 15 15 15 13 13
5 3 2 1 4 1 1 2 3 3 2 4 1 2 2 2 4 2 3 1 5 8 1 13 14 19 21 18 19 16 17 17 16 14 10 8 13 15 16 17 16 17 17 18 16 16 17 18 19 18 18 16 15 16 16 16 15 15 14 14 14 13 13
9 8 2 2 5 7 4 5 1 4 2 1 2 3 1 2 1 3 1 1 3 5 5 10 17 17 18 17 16 18 19 19 17 16 17 15 11 12 13 15 14 14 15 16 17 18 18 18 18 18 17 16 15 15 15 17 18 18 17 14 13 11 12
5 4 7 4 8 9 4 2 5 3 4 2 3 0 1 4 3 3 0 4 3 2 4 8 11 11 10 14 15 15 15 15 16 14 15 15 13 11 14 15 15 16 17 18 19 18 18 18 17 16 17 15 17 16 16 15 14 13 14 15 14 14 13
3 5 5 2 5 5 8 10 7 6 3 2 1 2 2 0 4 3 5 2 1 2 3 6 8 13 11 10 13 14 13 15 14 16 15 16 15 12 14 16 16 17 15 16 15 15 16 15 14 15 15 17 17 15 16 16 16 16 15 15 14 13 12
6 1 1 0 6 6 5 3 6 3 5 3 2 1 2 2 4 2 5 4 1 1 3 3 5 8 9 9 11 12 14 15 18 16 19 18 19 11 14 13 14 14 15 14 13 13 11 12 14 15 15 15 16 17 16 16 15 15 16 15 14 13 11
2 1 2 2 2 5 7 8 6 5 1 2 3 5 1 2 2 2 1 6 3 3 3 3 4 7 8 10 11 12 12 13 15 18 18 21 18 20 12 10 8 10 12 12 12 14 14 15 15 16 15 15 16 17 16 15 16 16 16 15 14 13 12
5 4 3 3 5 2 4 6 7 7 6 4 1 2 2 3 4 4 3 2 5 4 5 5 6 6 7 8 11 11 12 11 14 16 21 20 22 20 20 16 3 6 5 6 9 12 15 14 13 15 15 15 15 15 16 16 17 17 16 14 14 13 12
2 3 2 2 3 5 4 2 5 4 5 6 1 2 2 5 1 1 3 5 2 2 6 6 10 10 12 13 13 11 11 11 12 16 14 17 20 20 22 19 18 15 5 4 8 8 10 11 12 12 13 15 15 15 15 16 16 16 15 13 13 14 14
4 3 3 3 5 4 3 1 6 7 8 9 7 1 3 3 1 1 1 4 5 4 4 9 12 12 11 11 12 12 11 11 12 11 14 16 15 19 20 20 21 17 12 14 11 4 7 8 10 9 11 13 14 14 15 15 15 14 15 13 14 14 14
5 2 1 2 0 3 3 5 4 6 5 5 2 3 4 1 1 1 4 3 7 11 11 11 13 11 13 14 15 14 14 15 12 11 12 12 14 15 15 16 16 18 19 18 14 17 6 8 8 8 10 10 11 11 13 14 13 14 14 13 14 14 14
2 4 0 2 1 0 1 4 4 5 5 4 4 3 1 2 3 4 1 1 6 7 8 10 10 10 9 10 10 12 12 12 12 12 11 16 18 18 16 18 19 18 17 16 18 15 15 13 3 7 8 9 11 10 12 12 13 13 12 13 13 14 13
2 0 1 3 2 1 2 2 2 4 4 4 3 2 3 1 2 6 2 2 5 4 8 8 7 7 8 9 11 10 9 10 14 14 14 15 16 16 18 17 16 17 16 16 17 16 15 14 15 13 4 7 9 9 10 11 13 14 13 13 14 14 14
2 2 2 1 3 2 4 4 5 4 3 4 3 4 5 3 4 5 6 5 4 2 9 7 6 5 6 7 6 9 13 14 14 13 14 14 14 15 15 13 14 14 15 15 15 16 15 16 16 13 12 11 4 10 11 12 12 12 12 13 13 13 14
0 1 3 1 0 1 3 5 6 6 4 3 3 1 2 3 2 2 3 1 1 1 6 6 3 3 3 7 13 11 10 13 13 13 13 13 13 13 13 13 15 13 14 14 16 17 16 16 15 12 11 10 10 6 7 11 12 12 12 12 13 13 14
2 1 2 4 2 2 3 3 3 3 1 0 2 2 1 1 3 5 3 4 4 6 8 7 3 6 9 9 9 9 9 11 12 12 12 12 13 12 13 13 13 14 15 15 15 15 15 16 13 13 13 11 10 9 9 6 11 12 13 13 14 14 14
2 3 2 4 4 3 3 1 3 1 2 1 2 3 2 0 1 3 1 0 3 5 6 7 8 7 7 7 8 9 10 10 10 11 11 12 12 11 12 13 14 13 13 13 13 14 13 13 14 13 11 11 11 11 10 8 7 10 13 14 13 13 13
3 3 6 2 3 3 3 1 1 1 2 3 3 4 2 2 3 2 2 0 3 4 5 7 8 7 5 5 4 3 6 9 11 11 11 10 10 11 11 10 12 12 11 11 10 11 10 12 13 13 11 9 9 10 8 7 6 6 11 11 12 13 13
2 4 5 4 2 5 1 4 3 2 4 0 4 7 2 3 4 3 2 1 3 3 2 3 5 6 3 1 3 6 7 7 7 10 12 12 12 12 12 13 11 11 12 13 13 14 13 14 13 13 12 11 10 11 11 9 6 6 6 11 11 12 13
2 3 1 1 3 3 3 5 3 2 2 2 1 1 1 2 4 3 1 4 5 5 6 5 6 7 6 5 1 6 7 7 7 10 10 12 12 12 11 12 11 11 12 12 13 13 12 12 11 12 11 12 10 10 11 9 8 4 4 4 8 11 12
2 1 2 5 3 6 3 1 2 1 1 1 2 1 6 1 2 3 2 4 5 6 6 7 9 10 2 5 4 7 8 8 7 7 8 11 11 10 10 10 11 9 9 11 11 11 12 12 12 12 12 11 9 8 10 10 9 6 3 4 4 2 4
3 2 1 3 4 1 5 2 1 1 2 1 3 1 6 1 3 3 3 4 6 7 7 8 9 10 2 1 3 8 10 10 10 8 8 8 9 10 10 9 10 10 9 9 10 11 13 13 12 12 13 12 11 8 8 9 12 8 8 7 3 1 2
3 2 2 3 3 5 4 6 5 3 2 4 2 1 7 1 3 4 4 4 5 6 9 9 8 5 3 2 6 8 11 12 10 10 9 9 9 10 10 10 10 11 11 10 11 10 11 13 14 14 15 15 12 10 10 8 7 8 10 9 8 8 5
3 4 3 4 4 3 3 7 2 4 2 2 2 6 5 3 6 4 3 5 5 7 6 7 5 4 4 6 7 10 12 11 10 9 10 10 11 10 11 10 9 9 9 11 10 10 9 10 11 13 13 13 12 9 8 8 8 8 7 9 10 7 7
4 6 3 2 5 3 3 4 4 4 2 1 1 8 1 5 4 2 2 3 4 4 6 5 5 3 4 6 9 11 11 11 12 11 9 9 9 10 10 10 11 9 8 7 8 10 8 8 8 9 10 11 11 10 9 8 7 6 8 8 8 7 6
5 4 4 6 5 6 5 3 3 1 3 2 8 3 2 4 5 2 1 3 3 3 4 5 5 7 7 8 8 10 9 9 10 11 11 10 10 9 7 9 8 8 9 10 9 9 9 9 9 9 9 10 10 10 9 8 9 9 9 8 8 8 8
3 2 1 2 2 2 3 5 2 1 3 5 2 3 1 2 2 2 3 2 4 2 5 5 7 10 11 8 8 8 9 9 9 10 11 12 12 11 11 10 9 9 8 10 10 9 8 9 8 9 10 10 11 11 10 10 11 11 10 9 9 9 9
5 4 5 6 9 5 6 5 4 3 6 1 0 2 5 1 2 2 3 3 3 5 5 7 8 9 12 13 7 7 8 9 8 8 9 11 10 11 10 9 8 8 8 7 9 10 8 8 7 8 9 9 10 12 11 11 11 11 11 10 9 9 9
4 7 7 6 3 6 5 5 3 4 5 2 2 2 4 3 3 1 3 4 5 5 7 8 9 9 9 12 11 10 9 9 9 9 10 11 11 11 11 11 10 8 8 8 9 10 8 7 7 7 7 9 13 13 13 13 12 11 10 10 10 9 8
3 5 8 3 1 2 4 4 3 4 3 2 2 4 3 2 3 3 5 5 6 8 6 9 9 9 10 11 13 11 9 9 11 9 9 9 10 10 11 11 10 8 8 8 8 9 9 7 6 5 7 6 10 12 12 12 12 12 10 10 9 9 9
1 4 2 5 9 5 5 5 2 2 3 4 3 3 3 4 4 5 5 6 7 7 9 9 11 12 11 11 12 10 9 9 11 11 9 9 10 10 12 12 11 9 8 7 7 9 10 8 7 5 6 7 7 10 12 12 12 12 11 10 9 9 9
5 7 2 3 2 3 3 4 4 4 4 5 4 4 3 4 4 5 6 6 7 7 9 9 10 12 11 11 12 11 10 9 10 11 10 10 10 10 10 10 11 10 8 8 8 8 8 8 7 7 5 5 7 9 11 11 12 12 11 9 8 9 10
5 6 10 9 5 7 10 7 7 6 5 4 4 4 4 4 5 6 6 5 7 8 10 10 11 12 13 11 12 13 12 10 9 10 11 10 10 11 11 11 10 11 9 8 8 8 8 6 7 8 7 5 5 9 11 12 12 12 11 10 9 9 8
5 8 8 4 1 4 3 3 6 6 6 5 4 3 3 4 5 6 7 8 7 9 10 11 11 13 12 12 11 13 13 11 11 11 12 12 11 11 10 10 10 11 11 9 9 8 7 4 6 7 7 6 5 7 9 10 12 12 13 11 10 8 8
7 9 9 6 5 4 6 5 5 5 5 4 3 4 5 5 5 5 7 9 10 9 9 9 11 12 12 14 12 13 13 12 11 12 13 13 12 11 11 11 11 11 11 10 8 8 6 4 5 6 7 6 6 7 8 9 11 12 12 11 8 7 9
9 6 4 7 6 7 4 5 6 6 5 5 4 4 5 6 6 6 7 8 10 11 11 12 11 13 13 13 13 15 15 13 12 13 13 13 13 12 12 12 11 11 11 10 9 8 5 4 5 5 5 5 5 7 8 9 9 10 11 10 9 8 8
10 6 5 7 8 7 2 4 5 5 4 5 4 5 6 5 6 6 8 9 8 9 11 13 14 12 14 14 13 14 14 14 12 13 14 14 14 12 10 11 11 10 10 9 7 6 5 5 5 6 6 5 5 7 8 9 10 10 10 10 10 9 9
Wind_Direction
2 339 315 15 113 139 239 61 86 167 180 111 88 71 13 93 65 176 246 338 340 286 334 6 354 7 15 9 5 2 357 350 352 288 214 204 206 205 205 206 203 201 198 197 196 193 191 190 190 192 192 190 189 187 189 193 196 193 194 194 195 196 196
310 8 289 233 45 110 69 67 240 295 148 135 124 187 338 60 138 199 32 66 2 24 249 349 344 14 14 8 5 357 357 1 357 345 326 258 214 206 208 208 206 200 198 196 195 195 192 191 191 191 192 189 188 189 187 189 192 194 197 196 198 197 194
281 332 27 14 330 13 107 153 331 135 115 176 314 101 136 113 196 118 57 3 81 47 309 337 358 7 9 3 4 9 3 357 349 341 330 320 265 225 210 211 209 205 202 199 196 195 195 194 191 190 189 186 188 190 191 191 193 193 191 193 197 198 197
309 3 34 29 318 327 21 10 30 1 91 106 82 72 177 117 195 87 274 42 46 6 346 330 342 351 1 3 10 14 9 357 352 339 334 320 296 236 214 209 208 207 206 202 197 195 193 192 190 189 186 187 190 190 190 194 196 193 192 194 193 196 197
35 17 9 22 335 348 349 29 6 6 355 253 97 34 61 57 159 157 144 49 103 329 320 336 344 351 346 8 5 10 12 9 358 353 339 332 312 252 221 210 206 205 208 206 201 200 196 191 189 185 185 188 190 189 192 192 190 191 194 197 195 200 194
33 151 286 298 71 44 62 79 58 300 358 26 81 49 348 55 86 185 110 141 199 263 354 326 5 347 352 357 6 5 9 14 10 0 356 350 348 301 231 221 209 205 204 202 199 202 196 190 189 187 188 187 188 190 193 192 192 194 193 193 196 197 197
106 137 321 319 108 78 75 64 30 341 34 101 75 123 284 18 359 58 147 119 218 215 9 1 15 349 350 357 356 0 355 9 15 10 2 2 358 2 328 234 219 215 207 203 197 188 198 198 190 188 186 188 191 191 191 192 192 196 194 195 195 193 194
300 297 285 352 21 65 13 16 24 17 22 339 211 176 179 114 350 41 345 113 211 210 9 359 359 353 3 3 6 355 355 357 8 8 13 5 6 2 6 357 298 210 216 213 199 194 196 196 191 189 189 191 191 191 192 190 194 195 193 194 193 194 195
342 338 357 353 339 42 55 8 345 3 348 1 20 81 34 81 2 114 121 183 201 254 357 354 358 7 17 10 5 4 2 1 15 14 6 12 8 10 10 9 7 7 354 225 212 211 202 196 196 191 191 192 191 192 190 192 195 193 193 191 191 194 195
150 184 223 265 319 333 318 19 353 360 21 5 16 26 349 90 246 66 127 263 252 290 14 9 3 1 11 12 4 4 7 358 3 15 14 11 13 15 11 12 12 6 4 7 347 243 200 207 198 194 197 194 194 192 192 192 191 191 193 190 194 193 196
162 193 212 261 294 2 33 333 22 345 355 2 68 112 75 72 208 282 233 208 317 335 8 14 7 3 6 4 3 4 357 356 357 16 16 8 17 15 13 14 11 12 13 5 2 3 314 203 193 198 193 198 199 194 193 192 192 191 189 190 191 194 196
172 183 191 296 16 127 270 21 332 340 349 357 27 71 216 180 69 319 276 234 7 323 9 14 8 360 3 4 2 359 358 357 0 7 12 15 16 13 15 15 12 12 6 5 8 1 8 356 299 194 181 191 193 193 196 193 191 189 189 190 192 195 196
345 300 281 346 36 334 300 308 316 327 314 350 22 291 246 140 171 214 264 320 331 339 3 3 15 358 3 3 358 355 349 3 7 7 13 18 17 10 13 11 9 7 5 7 3 6 4 7 12 359 325 195 183 192 191 193 192 193 188 188 193 194 196
8 1 24 27 48 352 342 320 297 276 277 280 271 261 270 203 232 242 270 302 279 46 356 1 26 358 7 358 336 0 13 10 5 5 12 13 13 13 9 3 7 5 5 3 4 5 6 8 6 4 7 354 274 194 192 191 192 193 184 192 192 195 199
1 302 332 359 72 197 306 276 266 269 265 276 261 242 303 343 317 350 27 35 298 63 358 346 8 4 350 14 19 13 6 3 5 6 4 6 7 8 8 5 0 1 3 4 5 6 3 2 360 1 356 350 353 316 210 191 193 190 187 190 193 195 201
318 284 346 301 297 257 231 287 311 313 352 11 327 350 269 48 281 319 355 37 333 345 348 345 356 23 26 21 10 8 1 357 1 4 358 358 359 358 7 359 356 359 2 5 3 358 357 355 355 359 353 352 351 355 341 281 203 187 188 191 193 196 198
271 261 311 318 346 25 29 4 62 43 270 278 285 280 319 5 132 75 65 309 25 330 344 357 4 26 30 23 6 1 355 359 356 356 357 355 351 0 358 359 0 354 358 358 354 353 351 350 351 349 347 348 348 342 333 321 291 201 193 193 194 196 197
248 291 327 337 50 32 248 235 260 233 252 296 320 291 337 358 34 108 108 309 329 339 356 9 348 353 37 27 12 7 5 350 346 346 350 352 350 350 356 358 358 347 347 348 347 347 341 348 346 344 340 334 339 332 327 321 323 245 195 195 192 195 194
286 326 360 34 17 236 239 305 295 254 246 191 221 269 348 46 28 48 96 12 343 336 326 303 303 305 276 50 17 23 15 359 353 344 342 347 353 348 347 347 353 350 341 344 343 343 350 349 346 344 339 343 339 345 342 341 335 333 242 196 193 193 194
23 37 54 78 251 241 290 275 281 320 86 23 53 336 30 85 67 9 10 332 332 325 334 328 311 298 261 195 0 31 11 4 355 350 342 342 345 347 345 335 341 344 342 339 338 336 337 340 347 339 333 333 335 342 338 341 339 340 357 281 210 192 194
160 206 148 215 318 332 334 15 1 37 101 9 90 191 274 181 86 66 5 340 327 331 337 336 333 319 284 221 295 7 358 353 349 335 337 337 335 337 335 337 331 330 332 332 333 337 334 342 344 338 328 326 327 341 342 341 335 338 13 53 34 356 235
127 138 353 352 24 273 276 229 265 156 261 201 226 137 280 56 47 29 31 357 333 331 334 338 336 314 99 242 300 338 338 340 336 336 326 326 333 333 330 331 328 331 331 331 336 342 335 335 341 334 328 327 322 328 339 349 343 350 10 13 360 141 132
74 91 149 204 172 240 208 212 217 252 228 222 216 87 285 138 33 4 357 351 340 339 338 337 343 11 48 292 318 322 331 327 329 332 324 321 325 330 332 329 330 334 331 335 338 342 340 336 340 340 333 332 323 328 337 341 344 7 352 350 351 353 334
178 148 134 229 205 228 249 215 221 240 230 205 91 347 278 34 336 328 356 352 341 330 335 339 352 2 349 324 312 321 316 314 316 319 321 322 322 325 328 325 329 326 328 330 340 342 342 338 337 338 334 328 324 328 328 332 17 2 346 339 331 322 330
193 186 237 323 290 264 221 205 216 258 215 89 192 222 233 317 311 285 347 320 321 327 336 349 329 311 334 303 300 305 305 315 315 315 316 312 310 313 317 321 326 325 333 331 327 326 332 332 339 334 327 323 321 324 331 337 10 350 332 326 317 320 312
188 192 185 232 248 234 180 223 191 225 96 191 216 212 165 234 288 313 314 304 302 324 311 313 288 292 298 299 305 302 304 306 302 303 307 312 315 308 304 314 318 324 327 328 328 328 341 333 337 329 326 328 323 324 329 335 341 331 321 314 315 317 312
63 52 112 5 305 269 127 156 67 149 152 228 200 292 273 179 241 290 304 287 284 306 299 288 296 302 302 303 296 291 305 306 306 308 309 313 313 314 317 319 323 322 325 325 323 328 328 332 331 326 331 334 329 322 327 332 330 322 314 312 314 314 310
149 165 178 201 211 190 200 140 167 215 211 193 77 43 303 239 193 239 262 265 263 277 273 291 293 288 299 303 295 296 296 297 302 303 303 302 304 310 304 302 303 312 311 314 317 319 326 332 326 324 335 337 329 325 325 330 322 316 312 309 308 304 301
155 194 211 237 233 183 195 170 181 206 237 200 210 194 226 261 262 217 276 274 285 278 282 284 279 287 280 284 293 295 294 296 298 301 302 298 300 300 303 303 305 307 305 314 314 311 320 322 316 326 332 342 333 327 328 327 319 311 306 305 302 296 293
274 254 209 189 254 243 240 249 201 211 240 249 205 219 229 218 230 239 262 281 280 288 286 284 282 273 278 283 287 287 288 291 291 293 291 296 296 296 299 301 302 299 302 305 303 301 307 313 318 326 325 338 332 321 319 319 314 306 303 301 299 299 302
45 272 341 187 221 220 228 220 247 237 214 232 188 186 198 236 249 263 256 260 269 275 281 271 277 281 278 278 278 281 287 284 287 286 287 288 290 293 295 295 300 299 300 298 296 302 305 313 316 326 332 332 325 322 321 318 309 304 303 299 298 298 300
181 237 250 254 243 217 207 198 229 242 233 222 206 199 216 233 249 254 269 272 275 272 271 274 274 275 277 276 280 282 277 277 277 282 282 282 286 287 283 287 291 289 281 281 289 296 302 307 314 313 314 333 330 321 321 319 313 307 303 303 299 296 294
265 313 273 252 271 278 261 239 222 223 197 187 219 226 235 246 265 277 272 251 260 264 270 276 276 276 275 270 273 275 276 271 268 270 275 275 274 278 285 285 285 284 277 277 281 287 293 298 307 308 312 329 340 328 325 321 316 312 308 306 304 294 295
263 224 245 125 186 272 291 259 209 199 196 180 214 250 274 267 276 277 284 285 267 262 268 270 271 274 276 276 271 269 268 265 268 270 272 272 270 272 271 273 275 277 273 267 273 279 282 285 297 302 312 324 344 340 328 321 317 314 314 308 303 305 307
240 235 227 186 194 246 228 209 207 185 174 170 200 243 260 275 264 265 277 285 289 283 276 268 270 271 272 272 272 269 267 264 261 264 267 272 272 268 270 275 274 270 269 267 268 275 280 290 290 302 315 324 339 338 325 315 316 314 312 305 307 314 315
248 246 209 175 169 214 241 207 178 189 179 168 214 243 246 256 267 276 271 267 278 285 286 288 282 281 278 272 270 269 269 266 263 262 262 263 264 264 266 264 263 263 262 264 266 273 283 292 286 290 310 322 333 332 325 320 317 314 312 307 309 313 313
233 222 183 185 198 223 206 171 177 183 181 175 189 227 238 258 277 271 274 279 275 279 288 288 287 283 279 279 272 269 271 269 261 261 264 265 263 258 255 254 253 247 247 250 260 270 278 287 298 311 315 316 329 331 327 322 318 317 315 309 305 306 300